This is the latest recevied weather packets stored in our database for station/object KF0TNT. If no packets are shown the sender has not sent any weather packets the latest 10 day(s).
| Time | Temp. | Humidity | Pressure | Rain* | Wind** | Luminosity | Snow |
|---|---|---|---|---|---|---|---|
| 1777905201 | 12.78° C | 34% | 1014 hPa | 0 mm | - | 120 W/m² | - |
| 1777904898 | 12.78° C | 34% | 1014.3 hPa | 0 mm | - | 91 W/m² | - |
| 1777904595 | 12.22° C | 35% | 1014.3 hPa | 0 mm | - | 91 W/m² | - |
| 1777904292 | 12.22° C | 34% | 1014.3 hPa | 0 mm | - | 107 W/m² | - |
| 1777903989 | 12.22° C | 35% | 1014.4 hPa | 0 mm | - | 130 W/m² | - |
| 1777903686 | 12.22° C | 35% | 1014.4 hPa | 0 mm | - | 140 W/m² | - |
| 1777903382 | 12.22° C | 35% | 1014.3 hPa | 0 mm | - | 141 W/m² | - |
| 1777903078 | 12.22° C | 35% | 1014.3 hPa | 0 mm | - | 136 W/m² | - |
| 1777902775 | 12.22° C | 34% | 1014.3 hPa | 0 mm | - | 130 W/m² | - |
| 1777902473 | 12.22° C | 34% | 1014.1 hPa | 0 mm | - | 127 W/m² | - |
| 1777902169 | 12.22° C | 33% | 1014.3 hPa | 0 mm | - | 119 W/m² | - |
| 1777901868 | 12.22° C | 33% | 1014.1 hPa | 0 mm | - | 110 W/m² | - |
| 1777901564 | 11.67° C | 33% | 1014.6 hPa | 0 mm | - | 94 W/m² | - |
| 1777901262 | 11.67° C | 33% | 1014.3 hPa | 0 mm | - | 91 W/m² | - |
| 1777900959 | 11.67° C | 33% | 1014.1 hPa | 0 mm | - | 99 W/m² | - |
| 1777900657 | 11.67° C | 33% | 1014.1 hPa | 0 mm | - | 97 W/m² | - |
| 1777900354 | 11.67° C | 33% | 1014.3 hPa | 0 mm | - | 93 W/m² | - |
| 1777900051 | 11.11° C | 34% | 1014.3 hPa | 0 mm | - | 86 W/m² | - |
| 1777899746 | 11.11° C | 34% | 1014.3 hPa | 0 mm | - | 73 W/m² | - |
| 1777899444 | 11.11° C | 33% | 1014.1 hPa | 0 mm | - | 60 W/m² | - |
| 1777899142 | 10.56° C | 35% | 1014.4 hPa | 0 mm | - | 45 W/m² | - |
| 1777898839 | 10.56° C | 35% | 1014.3 hPa | 0 mm | - | 34 W/m² | - |
| 1777898536 | 10.56° C | 35% | 1014.1 hPa | 0 mm | - | 30 W/m² | - |
| 1777898234 | 10.56° C | 34% | 1014.4 hPa | 0 mm | - | 28 W/m² | - |
| 1777897931 | 10° C | 35% | 1014.4 hPa | 0 mm | - | 24 W/m² | - |
* Rain latest hour (hover to see other rain measurements)
** Current wind speed in m/s (hover to see current wind gust speed)